Find Starlink 6082

NORAD ID: 56110 Int'l Des: 2023-046 Owner: SPXS Country: US Constellation: starlink operational
LEOCIRCULAR

現在のビュー

3D地球を読み込み中...

About Starlink 6082

Starlink 6082 (NORAD 56110) is a starlink constellation satellite (v1.5) launched Mar 29, 2023 by SPXS of US. It operates in LEO, CIRCULAR orbit with a mass of 305.00 kg.

Starlink 6082について

説明を読み込み中...

次回通過

Passes for default location (London). Set your location on the main map for personalized predictions.

高度履歴

Loading altitude history...

軌道要素

1 56110U 23046T 26166.73195262 -.00000189 00000-0 26673-5 0 9992
2 56110 43.0030 328.0419 0001310 276.1014 83.9689 15.27572869177020
Epoch: Jun 15, 2026 • Age: 13 hours

現在のステータス

高度 486.7 km
速度 7.63 km/s
衛星直下点 41.62°N, 35.03°E
打ち上げ日 Mar 29, 2023
運用期間 3.2 years
タイプ internet

技術仕様

分類 Payload
質量 305.00 kg
乾燥質量 290.00 kg
総質量 305.00 kg
長さ 0.20 m
直径 2.80 m
スパン 9.00 m
形状 Box + pan
製造者 SPXS
バスタイプ Starlink
フェーズステータス In Orbit
所有者/国 SPXS/US

Most Searched